EW2522 Laukaa FI current weather conditions

sailwx.info

Wind from 225 at 1 knots gusting 4

Air temperature 26.1° C
Dewpoint 14.2° C

Last reported at 2020-Aug-08 16:57 UTC.
Time now 2020-Aug-08 17:27 UTC

Location: N 62°22' E 025°54'.
View on Google Maps.

See reports from other nearby stations

  
Tides and Currents Weather Stations Pressure Air Temp Water Temp Dewpoint Dewpoint Depression Visibility Wind Speed Wind Dir Waves Ship Positions
date/time (UTC)wind fromknots sea level pressurealtimeterstation pressurevisibilityair tempwater tempwave heightnotes
2020-Aug-08 16:57 225 1 gusting 4 26.1
2020-Aug-08 16:48 218 1 gusting 5 26.1
2020-Aug-08 16:39 219 0 gusting 3 26.7
2020-Aug-08 16:30 213 1 gusting 6 26.7
2020-Aug-08 16:21 221 0 gusting 4 26.7
2020-Aug-08 16:12 218 0 gusting 3 27.2
2020-Aug-08 16:03 222 2 gusting 6 27.2
2020-Aug-08 15:54 223 2 gusting 7 27.2
2020-Aug-08 15:45 224 2 gusting 8 27.2
2020-Aug-08 15:36 219 2 gusting 7 27.8
2020-Aug-08 15:27 216 2 gusting 6 27.8
2020-Aug-08 15:18 207 1 gusting 6 28.3
2020-Aug-08 15:09 223 1 gusting 6 28.9
2020-Aug-08 15:00 221 1 gusting 6 28.9
2020-Aug-08 14:51 225 0 gusting 6 28.9
2020-Aug-08 14:42 218 1 gusting 7 28.3
2020-Aug-08 14:33 211 1 gusting 6 28.9
2020-Aug-08 14:24 215 1 gusting 6 28.9
2020-Aug-08 14:15 225 1 gusting 7 28.9
2020-Aug-08 14:06 219 1 gusting 9 28.9
2020-Aug-08 13:57 222 2 gusting 9 28.9
2020-Aug-08 13:48 224 1 gusting 7 28.9
2020-Aug-08 13:39 225 3 gusting 10 28.3
2020-Aug-08 13:30 221 3 gusting 8 28.3
2020-Aug-08 13:21 218 3 gusting 8 28.3
2020-Aug-08 13:12 217 3 gusting 9 28.3
2020-Aug-08 13:03 227 2 gusting 8 28.9
2020-Aug-08 12:54 221 2 gusting 11 28.3
2020-Aug-08 12:45 217 3 gusting 11 28.9
2020-Aug-08 12:36 218 1 gusting 6 29.4
2020-Aug-08 12:27 226 0 gusting 5 28.9
2020-Aug-08 12:18 229 2 gusting 6 28.9
2020-Aug-08 12:09 212 2 gusting 6 28.9
2020-Aug-08 12:00 219 0 gusting 6 28.9
2020-Aug-08 11:51 28.3
2020-Aug-08 11:42 161 0 gusting 3 28.3
2020-Aug-08 11:33 133 0 gusting 5 28.3
2020-Aug-08 11:24 117 1 gusting 5 27.8
2020-Aug-08 11:15 168 0 gusting 4 27.8
2020-Aug-08 11:06 196 0 gusting 3 27.8
2020-Aug-08 10:57 215 2 gusting 7 27.8
2020-Aug-08 10:48 219 1 gusting 8 27.2
2020-Aug-08 10:39 204 2 gusting 8 27.2
2020-Aug-08 10:30 219 1 gusting 6 27.2
2020-Aug-08 10:21 212 1 gusting 6 26.7
2020-Aug-08 10:12 224 2 gusting 6 26.7
2020-Aug-08 10:03 216 1 gusting 6 26.7
2020-Aug-08 09:54 191 0 gusting 6 26.7
2020-Aug-08 09:45 102 1 gusting 5 26.1
2020-Aug-08 09:36 107 0 gusting 5 25.6
2020-Aug-08 09:27 095 1 gusting 6 25.6
2020-Aug-08 09:18 134 0 gusting 3 25.0
2020-Aug-08 09:09 127 0 gusting 4 24.4
2020-Aug-08 09:00 094 1 gusting 5 24.4
2020-Aug-08 08:51 117 0 gusting 4 24.4
2020-Aug-08 08:42 076 1 gusting 5 24.4
2020-Aug-08 08:33 077 1 gusting 5 23.9
2020-Aug-08 08:24 090 0 gusting 4 23.3
2020-Aug-08 08:15 103 0 gusting 3 23.3
2020-Aug-08 08:06 097 0 gusting 3 23.3
2020-Aug-08 07:57 22.8
2020-Aug-08 07:48 098 0 gusting 3 22.8
2020-Aug-08 07:39 086 0 gusting 2 22.2
2020-Aug-08 07:30 106 0 gusting 2 22.2
2020-Aug-08 07:21 104 0 gusting 2 21.7
2020-Aug-08 07:12 097 0 gusting 3 21.7
2020-Aug-08 07:03 21.1
2020-Aug-08 06:54 21.1
2020-Aug-08 06:45 20.6
2020-Aug-08 06:36 20.6
2020-Aug-08 06:27 20.0
2020-Aug-08 06:18 19.4
2020-Aug-08 06:09 18.9
2020-Aug-08 06:00 18.3
2020-Aug-08 05:51 17.8
2020-Aug-08 05:42 17.2
2020-Aug-08 05:33 17.2
2020-Aug-08 05:24 16.7
2020-Aug-08 05:15 16.7
2020-Aug-08 05:06 16.1
2020-Aug-08 04:57 16.1
2020-Aug-08 04:48 15.6
2020-Aug-08 04:39 15.0
2020-Aug-08 04:30 15.0
2020-Aug-08 04:21 14.4
2020-Aug-08 04:12 13.9
2020-Aug-08 04:03 13.3
2020-Aug-08 03:54 13.3
2020-Aug-08 03:45 13.3
2020-Aug-08 03:36 12.8
2020-Aug-08 03:27 12.8
2020-Aug-08 03:18 12.8
2020-Aug-08 03:09 12.8
2020-Aug-08 03:00 12.8
2020-Aug-08 02:51 12.8
2020-Aug-08 02:42 12.8
2020-Aug-08 02:33 12.8
2020-Aug-08 02:24 12.8
2020-Aug-08 02:15 12.8
2020-Aug-08 02:06 12.8
2020-Aug-08 01:57 12.8
2020-Aug-08 01:48 12.8
2020-Aug-08 01:39 12.8
2020-Aug-08 01:30 12.8
2020-Aug-08 01:21 13.3
2020-Aug-08 01:12 13.3
2020-Aug-08 01:03 13.3
2020-Aug-08 00:54 13.3
2020-Aug-08 00:45 13.3
2020-Aug-08 00:36 13.3
2020-Aug-08 00:27 13.3
2020-Aug-08 00:18 13.9
2020-Aug-08 00:09 13.9
2020-Aug-08 00:00 13.9
2020-Aug-07 23:51 13.9
2020-Aug-07 23:42 13.9
2020-Aug-07 23:33 13.9
2020-Aug-07 23:24 13.9
2020-Aug-07 23:15 13.9
2020-Aug-07 23:06 14.4
2020-Aug-07 22:57 14.4
2020-Aug-07 22:48 14.4
2020-Aug-07 22:39 14.4
2020-Aug-07 22:30 14.4
2020-Aug-07 22:21 14.4
2020-Aug-07 22:12 15.0
2020-Aug-07 22:03 15.0
2020-Aug-07 21:54 15.0
2020-Aug-07 21:45 15.0
2020-Aug-07 21:36 15.6
2020-Aug-07 21:27 15.6
2020-Aug-07 21:18 15.6
2020-Aug-07 21:09 15.6
2020-Aug-07 21:00 16.1
2020-Aug-07 20:51 16.1
2020-Aug-07 20:42 16.1
2020-Aug-07 20:33 16.7
2020-Aug-07 20:24 16.7
2020-Aug-07 20:15 16.7
2020-Aug-07 20:06 17.2
2020-Aug-07 19:57 17.2
2020-Aug-07 19:48 17.8
2020-Aug-07 19:39 17.8
2020-Aug-07 19:30 18.3
2020-Aug-07 19:21 18.9
2020-Aug-07 19:12 18.9
2020-Aug-07 19:03 18.9
2020-Aug-07 18:54 19.4
2020-Aug-07 18:45 20.0
2020-Aug-07 18:36 20.0
2020-Aug-07 18:27 20.6
2020-Aug-07 18:18 21.1
2020-Aug-07 18:09 21.7
2020-Aug-07 18:00 21.7
2020-Aug-07 17:51 22.2
2020-Aug-07 17:42 22.2
2020-Aug-07 17:33 22.8
2020-Aug-07 17:24 22.8
2020-Aug-07 17:15 23.3
2020-Aug-07 17:06 23.3
2020-Aug-07 16:57 236 0 gusting 3 23.3
2020-Aug-07 16:48 23.9
2020-Aug-07 16:39 226 1 gusting 5 23.9
2020-Aug-07 16:30 222 0 gusting 3 23.9
2020-Aug-07 16:21 23.9
2020-Aug-07 16:12 24.4
2020-Aug-07 16:03 214 0 gusting 5 24.4
2020-Aug-07 15:54 24.4
2020-Aug-07 15:45 24.4
2020-Aug-07 15:36 24.4
2020-Aug-07 15:27 25.0
2020-Aug-07 15:18 095 0 gusting 5 25.0
2020-Aug-07 15:09 096 0 gusting 5 25.0
2020-Aug-07 15:00 098 0 gusting 4 25.6
2020-Aug-07 14:51 25.6
2020-Aug-07 14:42 25.6
2020-Aug-07 14:33 25.6
2020-Aug-07 14:24 25.6
2020-Aug-07 14:15 25.6
2020-Aug-07 14:06 216 0 gusting 5 25.6
2020-Aug-07 13:57 225 1 gusting 6 25.6
2020-Aug-07 13:48 216 0 gusting 5 25.6
2020-Aug-07 13:39 225 0 gusting 4 25.6
2020-Aug-07 13:30 214 0 gusting 6 25.6
2020-Aug-07 13:21 25.6
2020-Aug-07 13:12 25.0
2020-Aug-07 13:03 106 0 gusting 5 24.4
2020-Aug-07 12:54 24.4
2020-Aug-07 12:45 055 0 gusting 4 23.9
2020-Aug-07 12:36 049 2 gusting 6 23.3
2020-Aug-07 12:27 076 2 gusting 6 23.3
2020-Aug-07 12:18 062 2 gusting 6 23.3
2020-Aug-07 12:09 055 2 gusting 6 22.8
2020-Aug-07 12:00 062 0 gusting 4 22.8
2020-Aug-07 11:51 22.2
2020-Aug-07 11:42 091 0 gusting 3 21.7
2020-Aug-07 11:33 21.7
2020-Aug-07 11:24 21.7
2020-Aug-07 11:15 21.7
2020-Aug-07 11:06 21.7
2020-Aug-07 10:57 069 0 gusting 4 21.1
2020-Aug-07 10:48 21.1
2020-Aug-07 10:39 21.7
2020-Aug-07 10:30 21.7
2020-Aug-07 10:21 21.7
2020-Aug-07 10:12 21.1
2020-Aug-07 10:03 21.7
2020-Aug-07 09:54 220 0 gusting 6 21.1
2020-Aug-07 09:45 20.6
2020-Aug-07 09:36 20.0
2020-Aug-07 09:27 227 0 gusting 3 20.0
2020-Aug-07 09:18 19.4
2020-Aug-07 09:09 19.4
2020-Aug-07 09:00 18.9
2020-Aug-07 08:51 18.9
2020-Aug-07 08:42 18.9
2020-Aug-07 08:33 18.9
2020-Aug-07 08:24 18.3
2020-Aug-07 08:15 18.3
2020-Aug-07 08:06 18.3
2020-Aug-07 07:57 216 1 gusting 5 18.3
2020-Aug-07 07:48 212 0 gusting 3 18.3
2020-Aug-07 07:39 223 1 gusting 4 18.3
2020-Aug-07 07:30 220 0 gusting 5 18.3
2020-Aug-07 07:21 224 1 gusting 6 18.3
2020-Aug-07 07:12 230 0 gusting 4 18.3
2020-Aug-07 07:03 219 1 gusting 6 17.8
2020-Aug-07 06:54 216 0 gusting 5 17.8
2020-Aug-07 06:45 222 0 gusting 4 17.8
2020-Aug-07 06:36 223 0 gusting 3 17.2
2020-Aug-07 06:27 17.2
2020-Aug-07 06:18 17.2
2020-Aug-07 06:09 16.7
2020-Aug-07 06:00 16.7
2020-Aug-07 05:51 16.1
2020-Aug-07 05:42 16.1
2020-Aug-07 05:33 15.6
2020-Aug-07 05:24 15.6
2020-Aug-07 05:15 15.6
2020-Aug-07 05:06 15.6
2020-Aug-07 04:57 15.0
2020-Aug-07 04:48 14.4
2020-Aug-07 04:39 14.4
2020-Aug-07 04:30 14.4
2020-Aug-07 04:21 13.9
2020-Aug-07 04:12 13.9
2020-Aug-07 04:03 13.9
2020-Aug-07 03:54 13.9
2020-Aug-07 03:45 13.9
2020-Aug-07 03:36 13.9
2020-Aug-07 03:27 13.9
2020-Aug-07 03:18 13.9
2020-Aug-07 03:09 13.9
2020-Aug-07 03:00 13.3
2020-Aug-07 02:51 13.3
2020-Aug-07 02:42 12.8
2020-Aug-07 02:33 12.8
2020-Aug-07 02:24 12.8
2020-Aug-07 02:15 12.8
2020-Aug-07 02:06 12.8
2020-Aug-07 01:57 12.8
2020-Aug-07 01:48 12.8
2020-Aug-07 01:39 13.3
2020-Aug-07 01:30 13.3
2020-Aug-07 01:21 13.3
2020-Aug-07 01:12 13.3
2020-Aug-07 01:03 13.3
2020-Aug-07 00:54 13.9
2020-Aug-07 00:45 13.9
2020-Aug-07 00:36 13.9
2020-Aug-07 00:27 13.9
2020-Aug-07 00:18 14.4
2020-Aug-07 00:09 14.4
2020-Aug-07 00:00 14.4
2020-Aug-06 23:51 14.4
2020-Aug-06 23:42 15.0
2020-Aug-06 23:33 15.0
2020-Aug-06 23:24 15.0
2020-Aug-06 23:15 15.6
2020-Aug-06 23:06 15.6
2020-Aug-06 22:57 15.6
2020-Aug-06 22:48 16.1
2020-Aug-06 22:39 16.1
2020-Aug-06 22:30 16.1
2020-Aug-06 22:21 16.1
2020-Aug-06 22:12 16.1
2020-Aug-06 22:03 16.1
2020-Aug-06 21:54 16.1
2020-Aug-06 21:45 16.7
2020-Aug-06 21:36 16.7
2020-Aug-06 21:27 16.7
2020-Aug-06 21:18 16.7
2020-Aug-06 21:09 16.7
2020-Aug-06 21:00 16.7
2020-Aug-06 20:51 16.7
2020-Aug-06 20:42 16.7
2020-Aug-06 20:33 16.7
2020-Aug-06 20:24 16.7
2020-Aug-06 20:15 16.7
2020-Aug-06 20:06 16.7
2020-Aug-06 19:57 16.7
2020-Aug-06 19:48 16.7
2020-Aug-06 19:39 17.2
2020-Aug-06 19:30 17.2
2020-Aug-06 19:21 17.2
2020-Aug-06 19:12 17.2
2020-Aug-06 19:03 17.2
2020-Aug-06 18:54 17.2
2020-Aug-06 18:45 17.2
2020-Aug-06 18:36 17.2
2020-Aug-06 18:27 17.2
2020-Aug-06 18:18 17.2
2020-Aug-06 18:09 17.2
2020-Aug-06 18:00 17.8
2020-Aug-06 17:51 17.8
2020-Aug-06 17:42 17.8
2020-Aug-06 17:33 217 0 gusting 3 17.8
2020-Aug-06 17:24 17.8
2020-Aug-06 17:15 17.8
2020-Aug-06 17:06 232 0 gusting 4 17.8